User: anonymous
Location: Lawrence
(38.9720°N, 95.2350°W)
Time: 03:45:10
(UTC-05:00)
Language:

SL-8 R/B - Orbit

View from above orbital plane
View from above orbital plane
View from above satellite
View from above satellite

Ground track
Ground track

The orbit data is extracted from the following two-line orbital elements,

1 33245U 08036B   14105.54417285  .00476306  98080-4  10419-2 0  7676
2 33245 098.0530 185.6456 0005792 276.3550 083.7219 15.98167800321652
Epoch (UTC): 15 April 2014 13:03:36
Eccentricity: 0.0005792
inclination: 98.0530°
perigee height: 275 km
apogee height: 283 km
right ascension of ascending node: 185.6456°
argument of perigee: 276.3550°
revolutions per day: 15.98167800
mean anomaly at epoch: 83.7219°
orbit number at epoch: 32165

The dashed part of the orbit path shows where the satellite is in the earth's shadow,  

DLR